ソニア彗星

C/2020 J1 ( SONEAR )

English version
Home page
Updated on September 11, 2022

---------------------------------------------------------------------

・ プロフィール

発見日 2020年5月1日
発見光度 17.0等
発見者 Southern Observatory for Near Earth Research (SONEAR) at Oliveira, Brazil

・ 写真集

・ 軌道要素

Epoch 2022 Jan. 21.0 TT = JDT 2459600.5
T 2021 Apr. 18.62217 TT                                 Rudenko
q   3.3551651            (2000.0)            P               Q
z  -0.0001697      Peri.  341.75846     -0.47284385     -0.76097589
 +/-0.0000005      Node   226.58445     -0.71298057     +0.03418865
e   1.0005693      Incl.  142.29827     -0.51776192     +0.64787871
From 798 observations 2020 May 1-2022 Jan. 28, mean residual 0".6.

・ 星図

・ 光度変化

        m1 = 2.5 + 5 logΔ + 15.0 log r(t - 90)

---------------------------------------------------------------------

軌道要素はM.P.E.C. 2022-C56に掲載されたものです。
星図はステラナビゲータ Ver.10 (アストロアーツ) で作成したものです。
光度グラフはComet for Windowsで作成したものです。

---------------------------------------------------------------------

Copyright(C) Seiichi Yoshida (comet@aerith.net). All rights reserved.